Location: Mascot Post Office (historical)
(40.2645°N, 99.5462°W)
Time: 06:49:10
(UTC+00:00)

Cosmos 921 Rocket - Pass Details

Date: 14 July 2020
Orbit: 572 x 632 km, 75.8° (Epoch: 05 August)

Event Time Altitude Azimuth Distance (km) Brightness Sun altitude
Rises 08:34:30 0° 351° (N) 2,890 7.3 -23.0°
Reaches altitude 10° 08:36:55 10° 360° (N) 1,971 6.5 -22.8°
Maximum altitude 08:40:59 37° 68° (ENE) 945 4.4 -22.4°
Enters shadow 08:44:01 16° 130° (SE) 1,584 5.0 -22.1°
